{"data":{"norad_id":54168,"epoch":"2026-05-25T01:07:16.701312Z","epoch_age_seconds":81577,"freshness":"FRESH","line1":"1 54168U 22141M   26145.04672108 -.00000192  00000+0  60107-5 0  9991","line2":"2 54168  53.2132  21.4313 0001255  94.8313 265.2823 15.08836979197389","mean_motion":15.08836979,"eccentricity":0.0001255,"inclination_deg":53.2132,"raan_deg":21.4313,"arg_perigee_deg":94.8313,"mean_anomaly_deg":265.2823,"bstar":6.0107e-6,"rev_number":19738,"period_min":95.437745763255,"perigee_km":538.88442782026,"apogee_km":540.62081811562,"semimajor_km":6917.8896229679,"source":"CELESTRAK","updated_at":"2026-05-25T13:38:17.661522Z"}}